Tiempo cada hora Dalabuszki

Hoy, 18 Junio, Viernes

Tiempo Temperatura Precipitaciones Viento Presión Humedad
00:00 +19°C° 0 mm 3 mps 755 mmHg 78%
01:00 +19°C° 0 mm 3 mps 755 mmHg 78%
02:00 +18°C° 0 mm 3 mps 755 mmHg 78%
03:00 +18°C° 0 mm 3 mps 755 mmHg 78%
04:00 +17°C° 0 mm 3 mps 755 mmHg 79%
05:00 +19°C° 0 mm 3 mps 755 mmHg 75%
06:00 +20°C° 0 mm 4 mps 755 mmHg 71%
07:00 +22°C° 0 mm 4 mps 755 mmHg 68%
08:00 +23°C° 0 mm 4 mps 755 mmHg 63%
09:00 +26°C° 0 mm 4 mps 755 mmHg 59%
10:00 +27°C° 0 mm 4 mps 755 mmHg 54%
11:00 +28°C° 0 mm 4 mps 755 mmHg 51%
12:00 +29°C° 0 mm 3 mps 754 mmHg 48%
13:00 +30°C° 0 mm 3 mps 754 mmHg 46%
14:00 +31°C° 0 mm 3 mps 754 mmHg 46%
15:00 +31°C° 0 mm 3 mps 754 mmHg 47%
16:00 +31°C° 0 mm 3 mps 753 mmHg 48%
17:00 +30°C° 0 mm 3 mps 753 mmHg 56%
18:00 +28°C° 0 mm 3 mps 753 mmHg 64%
19:00 +26°C° 0 mm 3 mps 753 mmHg 71%
20:00 +25°C° 0 mm 3 mps 753 mmHg 74%
21:00 +24°C° 0 mm 3 mps 754 mmHg 76%
22:00 +22°C° 0 mm 3 mps 754 mmHg 79%
23:00 +21°C° 0 mm 3 mps 754 mmHg 80%

Mañana, 19 Junio, Sábado

Tiempo Temperatura Precipitaciones Viento Presión Humedad
00:00 +20°C° 0 mm 3 mps 754 mmHg 81%
01:00 +20°C° 0 mm 3 mps 754 mmHg 83%
02:00 +20°C° 0 mm 3 mps 754 mmHg 85%
03:00 +19°C° 0 mm 3 mps 753 mmHg 88%
04:00 +19°C° 0 mm 3 mps 753 mmHg 90%
05:00 +20°C° 0 mm 3 mps 753 mmHg 85%
06:00 +22°C° 0 mm 4 mps 754 mmHg 80%
07:00 +23°C° 0 mm 4 mps 754 mmHg 74%
08:00 +26°C° 0 mm 4 mps 753 mmHg 69%
09:00 +27°C° 0 mm 4 mps 753 mmHg 64%
10:00 +29°C° 0 mm 4 mps 753 mmHg 59%
11:00 +30°C° 0 mm 4 mps 753 mmHg 56%
12:00 +30°C° 0 mm 3 mps 753 mmHg 52%
13:00 +31°C° 0 mm 3 mps 753 mmHg 49%
14:00 +33°C° 0 mm 3 mps 752 mmHg 49%
15:00 +33°C° 0 mm 3 mps 752 mmHg 49%
16:00 +33°C° 0 mm 3 mps 752 mmHg 48%
17:00 +30°C° 0 mm 3 mps 752 mmHg 56%
18:00 +29°C° 0 mm 3 mps 751 mmHg 64%
19:00 +27°C° 0 mm 4 mps 751 mmHg 71%
20:00 +26°C° 0 mm 3 mps 752 mmHg 73%
21:00 +25°C° 0 mm 3 mps 752 mmHg 74%
22:00 +24°C° 0 mm 3 mps 752 mmHg 76%
23:00 +22°C° 0 mm 3 mps 752 mmHg 78%

Pasado mañana, 20 Junio, Domingo

Tiempo Temperatura Precipitaciones Viento Presión Humedad
00:00 +23°C° 0 mm 2 mps 752 mmHg 80%
01:00 +21°C° 0 mm 2 mps 752 mmHg 82%
02:00 +21°C° 0 mm 2 mps 752 mmHg 83%
03:00 +20°C° 0 mm 3 mps 752 mmHg 85%
04:00 +20°C° 0 mm 3 mps 751 mmHg 86%
05:00 +21°C° 0 mm 4 mps 751 mmHg 82%
06:00 +22°C° 0 mm 4 mps 752 mmHg 78%
07:00 +23°C° 0 mm 4 mps 752 mmHg 75%
08:00 +25°C° 0 mm 4 mps 751 mmHg 69%
09:00 +27°C° 0 mm 4 mps 751 mmHg 63%
10:00 +28°C° 0 mm 5 mps 751 mmHg 57%
11:00 +29°C° 0 mm 5 mps 751 mmHg 55%
12:00 +30°C° 0 mm 5 mps 750 mmHg 53%
13:00 +30°C° 0 mm 5 mps 750 mmHg 50%
14:00 +30°C° 0 mm 5 mps 749 mmHg 51%
15:00 +30°C° 0 mm 5 mps 749 mmHg 52%
16:00 +30°C° 0 mm 5 mps 749 mmHg 52%
17:00 +29°C° 0 mm 4 mps 748 mmHg 59%
18:00 +28°C° 0 mm 4 mps 748 mmHg 65%
19:00 +26°C° 0 mm 3 mps 748 mmHg 72%
20:00 +25°C° 0 mm 3 mps 748 mmHg 75%
21:00 +24°C° 0 mm 3 mps 748 mmHg 77%
22:00 +22°C° 0 mm 3 mps 748 mmHg 80%
23:00 +21°C° 0 mm 3 mps 748 mmHg 82%

21 Junio, Lunes

Tiempo Temperatura Precipitaciones Viento Presión Humedad
00:00 +21°C° 0 mm 3 mps 748 mmHg 84%
01:00 +20°C° 0 mm 3 mps 747 mmHg 86%
02:00 +20°C° 0 mm 3 mps 747 mmHg 89%
03:00 +20°C° 0 mm 3 mps 747 mmHg 91%
04:00 +19°C° 0 mm 2 mps 747 mmHg 93%
05:00 +20°C° 0 mm 2 mps 747 mmHg 89%
06:00 +23°C° 0 mm 2 mps 747 mmHg 85%
07:00 +24°C° 0 mm 3 mps 747 mmHg 81%
08:00 +25°C° 0.2 mm 3 mps 747 mmHg 77%
09:00 +26°C° 0.2 mm 3 mps 748 mmHg 74%
10:00 +27°C° 0.2 mm 4 mps 748 mmHg 70%
11:00 +26°C° 0.3 mm 3 mps 748 mmHg 74%
12:00 +25°C° 0.3 mm 2 mps 748 mmHg 78%
13:00 +24°C° 0.3 mm 1 mps 748 mmHg 82%
14:00 +25°C° 0.4 mm 1 mps 748 mmHg 80%
15:00 +25°C° 0.4 mm 2 mps 748 mmHg 79%
16:00 +25°C° 0.4 mm 2 mps 748 mmHg 77%
17:00 +25°C° 0.1 mm 2 mps 748 mmHg 81%
18:00 +24°C° 0.1 mm 2 mps 748 mmHg 85%
19:00 +23°C° 0.1 mm 2 mps 748 mmHg 89%
20:00 +21°C° 0 mm 2 mps 748 mmHg 90%
21:00 +21°C° 0 mm 2 mps 748 mmHg 90%
22:00 +21°C° 0 mm 1 mps 748 mmHg 91%
23:00 +20°C° 0 mm 1 mps 748 mmHg 91%

22 Junio, Martes

Tiempo Temperatura Precipitaciones Viento Presión Humedad
00:00 +20°C° 0 mm 1 mps 748 mmHg 90%
01:00 +19°C° 0 mm 1 mps 748 mmHg 90%
02:00 +19°C° 0 mm 1 mps 748 mmHg 90%
03:00 +19°C° 0 mm 1 mps 748 mmHg 91%
04:00 +19°C° 0 mm 1 mps 748 mmHg 91%
05:00 +20°C° 0.1 mm 1 mps 749 mmHg 88%
06:00 +22°C° 0.1 mm 1 mps 749 mmHg 85%
07:00 +23°C° 0.1 mm 2 mps 749 mmHg 82%
08:00 +24°C° 0.6 mm 2 mps 749 mmHg 77%
09:00 +26°C° 0.6 mm 2 mps 749 mmHg 73%
10:00 +27°C° 0.6 mm 2 mps 750 mmHg 68%
11:00 +28°C° 0.1 mm 2 mps 750 mmHg 64%
12:00 +29°C° 0.1 mm 3 mps 750 mmHg 59%
13:00 +29°C° 0.1 mm 3 mps 750 mmHg 54%
14:00 +30°C° 0.1 mm 3 mps 749 mmHg 54%
15:00 +30°C° 0.1 mm 3 mps 749 mmHg 54%
16:00 +30°C° 0.1 mm 3 mps 749 mmHg 54%
17:00 +28°C° 0.3 mm 3 mps 749 mmHg 61%
18:00 +27°C° 0.3 mm 3 mps 749 mmHg 68%
19:00 +25°C° 0.3 mm 2 mps 749 mmHg 76%
20:00 +24°C° 0.3 mm 2 mps 749 mmHg 81%
21:00 +23°C° 0.3 mm 2 mps 749 mmHg 86%
22:00 +21°C° 0.3 mm 2 mps 749 mmHg 92%
23:00 +20°C° 0.3 mm 3 mps 749 mmHg 93%

23 Junio, Miércoles

Tiempo Temperatura Precipitaciones Viento Presión Humedad
00:00 +20°C° 0.3 mm 3 mps 749 mmHg 94%
01:00 +19°C° 0.3 mm 3 mps 749 mmHg 95%
02:00 +19°C° 0 mm 3 mps 749 mmHg 95%
03:00 +18°C° 0 mm 3 mps 749 mmHg 96%
04:00 +18°C° 0 mm 3 mps 749 mmHg 97%
05:00 +19°C° 0.6 mm 3 mps 748 mmHg 95%
06:00 +19°C° 0.6 mm 4 mps 748 mmHg 94%
07:00 +20°C° 0.6 mm 4 mps 748 mmHg 92%
08:00 +21°C° 0.7 mm 4 mps 748 mmHg 88%
09:00 +22°C° 0.7 mm 5 mps 747 mmHg 83%
10:00 +23°C° 0.7 mm 5 mps 747 mmHg 79%
11:00 +22°C° 0.1 mm 7 mps 747 mmHg 77%
12:00 +21°C° 0.1 mm 8 mps 747 mmHg 76%
13:00 +21°C° 0.1 mm 9 mps 748 mmHg 75%
14:00 +17°C° 0 mm 9 mps 749 mmHg 76%
15:00 +15°C° 0 mm 9 mps 750 mmHg 78%
16:00 +12°C° 0 mm 9 mps 751 mmHg 80%
17:00 +12°C° 0 mm 9 mps 752 mmHg 79%
18:00 +11°C° 0 mm 8 mps 753 mmHg 78%
19:00 +11°C° 0 mm 8 mps 753 mmHg 77%
20:00 +11°C° 0 mm 7 mps 754 mmHg 76%
21:00 +11°C° 0 mm 6 mps 754 mmHg 76%
22:00 +12°C° 0 mm 5 mps 755 mmHg 75%
23:00 +10°C° 0 mm 5 mps 755 mmHg 80%
Mostrar más

Necesitamos Su Consentimiento

Meteoprog y nuestros Proveedores de Servicios pueden almacenar y acceder a sus datos personales como cookies, identificadores de dispositivo u otras tecnologías similares de su dispositivo y procesar dichos datos para personalizar contenido y anuncios, además de ofrecer funciones de redes sociales y analizar el tráfico.

  • Almacenar y/o acceder a información en su dispositivo

    Se puede almacenar o acceder a cookies, identificadores de dispositivo u otra información de su dispositivo para los fines anteriormente indicados.

  • Anuncios y contenido personalizados, medición de anuncios y contenido, percepciones del público, y desarrollo de productos

    Los anuncios y el contenido pueden personalizarse en base a su perfil. Se pueden añadir más datos para personalizar mejor los anuncios y contenidos. Se puede medir el rendimiento de los anuncios y contenidos. Se puede obtener la percepción sobre el público que ha visto los anuncios y contenidos. Dichos datos pueden usarse para desarrollar o mejorar la experiencia del usuario, sistemas y software.

Al hacer clic en ‘Estoy De Acuerdo’ usted permitirá el uso de las cookies, identificadores de dispositivo, balizas web u otras tecnologías similares indicadas. Su configuración puede cambiarse desde el navegador de su dispositivo.

Para ciertos fines, los intereses legítimos pueden ser considerados por encima del consentimiento. Puede leer más sobre ello en nuestra Política de Privacidad y Cookies.